Peoria, IL

1:45 PM CST on November 21, 2017 (GMT -0600)
Greater Peoria Regional

Weather History for KPIA - March, 2015

Change the Weather History Date:

Friday, March 6, 2015

  Actual Average Record
Temperature  
Mean Temperature 19 °F 37 °F  
Max Temperature 34 °F 46 °F 75 °F (1956)
Min Temperature 3 °F 28 °F -10 °F (1960)
Degree Days  
Heating Degree Days 46 28  
Month to date heating degree days 253 176  
Since 1 July heating degree days 4959 4692  
Cooling Degree Days 0 0  
Month to date cooling degree days 0 0  
Year to date cooling degree days 0 0  
Moisture  
Dew Point 12 °F    
Average Humidity 71    
Maximum Humidity 83    
Minimum Humidity 58    
Precipitation  
Precipitation 0.00 in 0.09 in 1.64 in (1973)
Month to date precipitation 0.27 0.50  
Year to date precipitation 3.99 4.07  
Snow  
Snow 0.00 in 0.10 in 5.60 in (1943)
Month to date snowfall 2.7 0.8  
Since 1 July snowfall 27.0 22.1  
Snow Depth 2.00 in    
Sea Level Pressure  
Sea Level Pressure 30.37 in    
Wind  
Wind Speed 12 mph (South)    
Max Wind Speed 23 mph    
Max Gust Speed 30 mph    
Visibility 10 miles    
Events      
T = Trace of Precipitation, MM = Missing Value Source: NWS Daily Summary

Daily Weather History Graph

Daily Weather History Graph

Search for Another Location

Airport or City:

Trip Planner

Search our weather history database for the weather conditions in past years. The results will help you decide how hot, cold, wet, or windy it might be!

Date:

Astronomy

Mar. 06, 2015 Rise Set
Actual Time 6:25 AM CST 5:55 PM CST
Civil Twilight 5:57 AM CST 6:22 PM CST
Nautical Twilight 5:26 AM CST 6:54 PM CST
Astronomical Twilight 4:54 AM CST 7:26 PM CST
Moon 7:03 PM CST (3/6) 6:41 AM CST (3/6)
Length of Visible Light 12h 24m
Length of Day
11h 30m
Full, 99% of the Moon is Illuminated
Mar 6
Full
Mar 13
Last Quarter
Mar 20
New
Mar 27
First Quarter
Apr 4
Full

Hourly Weather History & Observations

Time (CST) Temp. Windchill Dew Point Humidity Pressure Visibility Wind Dir Wind Speed Gust Speed Precip Events Conditions
12:54 AM 3.9 °F - -4.0 °F 70% 30.58 in 10.0 mi Calm Calm - N/A   Clear
1:54 AM 5.0 °F -2.1 °F -2.0 °F 73% 30.58 in 10.0 mi South 3.5 mph - N/A   Clear
2:54 AM 5.0 °F -4.1 °F -0.9 °F 76% 30.56 in 10.0 mi South 4.6 mph - N/A   Clear
3:54 AM 6.1 °F -6.8 °F -0.9 °F 73% 30.53 in 10.0 mi South 8.1 mph - N/A   Clear
4:54 AM 6.8 °F -4.8 °F -0.4 °F 72% 30.50 in 10.0 mi South 6.9 mph - N/A   Clear
5:54 AM 6.1 °F -6.8 °F -0.9 °F 73% 30.53 in 10.0 mi South 8.1 mph - N/A   Clear
6:54 AM 7.0 °F -8.3 °F -0.0 °F 73% 30.51 in 10.0 mi South 11.5 mph - N/A   Partly Cloudy
7:54 AM 10.9 °F -3.4 °F 1.9 °F 67% 30.48 in 10.0 mi South 11.5 mph - N/A   Clear
8:54 AM 15.1 °F -0.6 °F 5.0 °F 64% 30.46 in 10.0 mi South 16.1 mph - N/A   Clear
9:54 AM 19.9 °F 3.5 °F 9.0 °F 62% 30.42 in 10.0 mi South 21.9 mph 27.6 mph N/A   Partly Cloudy
10:54 AM 24.1 °F 10.1 °F 12.0 °F 60% 30.37 in 10.0 mi South 18.4 mph 24.2 mph N/A   Clear
11:54 AM 27.0 °F 13.9 °F 15.1 °F 61% 30.34 in 10.0 mi South 18.4 mph - N/A   Clear
12:54 PM 30.0 °F 19.5 °F 17.1 °F 59% 30.32 in 10.0 mi SSW 13.8 mph - N/A   Clear
1:54 PM 30.9 °F 20.2 °F 18.0 °F 59% 30.29 in 10.0 mi SSW 15.0 mph - N/A   Clear
2:54 PM 32.0 °F 21.6 °F 19.4 °F 60% 30.25 in 10.0 mi SSW 15.0 mph - N/A   Clear
3:54 PM 34.0 °F 25.0 °F 21.9 °F 61% 30.27 in 10.0 mi South 12.7 mph - N/A   Clear
4:54 PM 34.0 °F 24.6 °F 21.9 °F 61% 30.27 in 10.0 mi South 13.8 mph - N/A   Clear
5:54 PM 32.0 °F 22.5 °F 21.9 °F 66% 30.26 in 10.0 mi South 12.7 mph - N/A   Clear
6:54 PM 30.0 °F 21.7 °F 21.0 °F 69% 30.26 in 10.0 mi South 9.2 mph - N/A   Clear
7:54 PM 28.9 °F 19.8 °F 21.0 °F 72% 30.25 in 10.0 mi South 10.4 mph - N/A   Clear
8:54 PM 28.0 °F 19.3 °F 19.9 °F 72% 30.24 in 10.0 mi South 9.2 mph - N/A   Clear
9:54 PM 28.0 °F 18.1 °F 19.9 °F 72% 30.22 in 10.0 mi South 11.5 mph - N/A   Clear
10:54 PM 28.0 °F 17.5 °F 21.0 °F 75% 30.20 in 10.0 mi South 12.7 mph - N/A   Clear
11:54 PM 28.9 °F 18.6 °F 21.9 °F 75% 30.18 in 10.0 mi South 12.7 mph - N/A   Clear